| time (UTC) | temp F | wind direction | speed knots | gust knots | rain 1hr in | rain 24hr in | rain mn in | humidity % | barometer mb |
| 20260509101548 | 61 | 193 | 9.6 | 18.2 | 0.00 | 0.00 | 0.00 | 45 | 1022.5 |
| 20260509101032 | 61 | 200 | 10.4 | 18.2 | 0.00 | 0.00 | 0.00 | 47 | 1022.4 |
| 20260509100532 | 60 | 226 | 7.8 | 18.2 | 0.00 | 0.00 | 0.00 | 49 | 1022.4 |
| 20260509100046 | 60 | 171 | 7.8 | 15.6 | 0.00 | 0.00 | 0.00 | 49 | 1022.5 |
| 20260509095533 | 59 | 214 | 9.6 | 15.6 | 0.00 | 0.00 | 0.00 | 50 | 1022.6 |
| 20260509095033 | 59 | 210 | 7.8 | 12.2 | 0.00 | 0.00 | 0.00 | 52 | 1022.7 |
| 20260509094550 | 59 | 236 | 7.0 | 12.2 | 0.00 | 0.00 | 0.00 | 51 | 1022.6 |
| 20260509094032 | 59 | 203 | 3.5 | 12.2 | 0.00 | 0.00 | 0.00 | 57 | 1022.6 |
| 20260509093532 | 59 | 217 | 7.0 | 12.2 | 0.00 | 0.00 | 0.00 | 54 | 1022.7 |
| 20260509093045 | 59 | 214 | 6.1 | 13.0 | 0.00 | 0.00 | 0.00 | 51 | 1022.8 |
| 20260509092532 | 59 | 236 | 8.7 | 13.0 | 0.00 | 0.00 | 0.00 | 53 | 1022.9 |
| 20260509092034 | 58 | 237 | 7.8 | 14.8 | 0.00 | 0.00 | 0.00 | 52 | 1023.0 |
| 20260509091542 | 59 | 210 | 7.8 | 14.8 | 0.00 | 0.00 | 0.00 | 56 | 1022.9 |
| 20260509091038 | 58 | 95 | 4.3 | 10.4 | 0.00 | 0.00 | 0.00 | 57 | 1022.9 |
| 20260509090534 | 58 | 217 | 7.0 | 10.4 | 0.00 | 0.00 | 0.00 | 58 | 1023.0 |
| 20260509090041 | 58 | 162 | 6.1 | 9.6 | 0.00 | 0.00 | 0.00 | 57 | 1023.1 |
| 20260509085534 | 58 | 246 | 4.3 | 9.6 | 0.00 | 0.00 | 0.00 | 62 | 1023.1 |
| 20260509085034 | 58 | 185 | 1.7 | 6.1 | 0.00 | 0.00 | 0.00 | 62 | 1023.1 |
| 20260509084550 | 58 | 100 | 1.7 | 7.0 | 0.00 | 0.00 | 0.00 | 62 | 1023.1 |
| 20260509084034 | 57 | 212 | 2.6 | 9.6 | 0.00 | 0.00 | 0.00 | 66 | 1023.1 |
| 20260509083534 | 56 | 180 | 4.3 | 9.6 | 0.00 | 0.00 | 0.00 | 63 | 1023.3 |
| 20260509083049 | 56 | 235 | 3.5 | 9.6 | 0.00 | 0.00 | 0.00 | 68 | 1023.3 |
| 20260509082534 | 56 | 102 | 5.2 | 10.4 | 0.00 | 0.00 | 0.00 | 69 | 1023.4 |
| 20260509082034 | 56 | 221 | 6.1 | 10.4 | 0.00 | 0.00 | 0.00 | 68 | 1023.4 |
| 20260509081550 | 56 | 233 | 6.1 | 9.6 | 0.00 | 0.00 | 0.00 | 69 | 1023.3 |
| 20260509081035 | 55 | 167 | 5.2 | 9.6 | 0.00 | 0.00 | 0.00 | 69 | 1023.3 |
| 20260509080536 | 55 | 223 | 4.3 | 9.6 | 0.00 | 0.00 | 0.00 | 70 | 1023.3 |
| 20260509080044 | 55 | 160 | 5.2 | 9.6 | 0.00 | 0.00 | 0.00 | 69 | 1023.3 |
| 20260509075538 | 55 | 208 | 4.3 | 9.6 | 0.00 | 0.00 | 0.00 | 69 | 1023.3 |
| 20260509075034 | 55 | 205 | 4.3 | 9.6 | 0.00 | 0.00 | 0.00 | 71 | 1023.3 |
| 20260509074552 | 55 | 169 | 5.2 | 8.7 | 0.00 | 0.00 | 0.00 | 70 | 1023.3 |
| 20260509074034 | 55 | 195 | 4.3 | 8.7 | 0.00 | 0.00 | 0.00 | 70 | 1023.5 |
| 20260509073536 | 54 | 172 | 4.3 | 8.7 | 0.00 | 0.00 | 0.00 | 71 | 1023.5 |
| 20260509073047 | 54 | 210 | 4.3 | 7.0 | 0.00 | 0.00 | 0.00 | 72 | 1023.5 |
| 20260509072534 | 54 | 179 | 3.5 | 6.1 | 0.00 | 0.00 | 0.00 | 74 | 1023.5 |
| 20260509072034 | 53 | 215 | 1.7 | 4.3 | 0.00 | 0.00 | 0.00 | 74 | 1023.6 |
| 20260509071538 | 53 | 163 | 1.7 | 4.3 | 0.00 | 0.00 | 0.00 | 75 | 1023.5 |
| 20260509071034 | 52 | 161 | 1.7 | 4.3 | 0.00 | 0.00 | 0.00 | 76 | 1023.6 |
| 20260509070534 | 52 | 103 | 0.9 | 4.3 | 0.00 | 0.00 | 0.00 | 76 | 1023.6 |
| 20260509070039 | 52 | 141 | 0.9 | 5.2 | 0.00 | 0.00 | 0.00 | 78 | 1023.7 |
| 20260509065534 | 51 | 265 | 2.6 | 5.2 | 0.00 | 0.00 | 0.00 | 78 | 1023.7 |
| 20260509065034 | 51 | 200 | 0.9 | 4.3 | 0.00 | 0.00 | 0.00 | 78 | 1023.7 |
| 20260509064557 | 50 | 179 | 0.9 | 3.5 | 0.00 | 0.00 | 0.00 | 79 | 1023.8 |
| 20260509064035 | 50 | 120 | 1.7 | 3.5 | 0.00 | 0.00 | 0.00 | 79 | 1023.7 |
| 20260509063534 | 50 | 124 | 0.9 | 3.5 | 0.00 | 0.00 | 0.00 | 80 | 1023.8 |
| 20260509063046 | 49 | 190 | 0.9 | 2.6 | 0.00 | 0.00 | 0.00 | 80 | 1023.8 |
| 20260509062537 | 49 | 129 | 0.0 | 1.7 | 0.00 | 0.00 | 0.00 | 81 | 1023.9 |
| 20260509062038 | 48 | 0 | 0.0 | 1.7 | 0.00 | 0.00 | 0.00 | 81 | 1023.8 |
| 20260509061545 | 48 | 176 | 0.0 | 1.7 | 0.00 | 0.00 | 0.00 | 81 | 1023.8 |
| 20260509061035 | 48 | 155 | 0.9 | 2.6 | 0.00 | 0.00 | 0.00 | 81 | 1023.8 |
| 20260509060535 | 47 | 0 | 0.0 | 2.6 | 0.00 | 0.00 | 0.00 | 81 | 1023.9 |
| 20260509060042 | 47 | 0 | 0.9 | 2.6 | 0.00 | 0.00 | 0.00 | 81 | 1023.9 |
| 20260509055534 | 46 | 0 | 0.0 | 0.0 | 0.00 | 0.00 | 0.00 | 82 | 1023.9 |
| 20260509055033 | 45 | 0 | 0.0 | 0.0 | 0.00 | 0.00 | 0.00 | 82 | 1023.9 |
| 20260509054548 | 45 | 0 | 0.0 | 0.0 | 0.00 | 0.00 | 0.00 | 81 | 1024.0 |
| 20260509054033 | 44 | 0 | 0.0 | 0.0 | 0.00 | 0.00 | 0.00 | 82 | 1024.0 |
| 20260509053534 | 44 | 0 | 0.0 | 0.0 | 0.00 | 0.00 | 0.00 | 82 | 1024.0 |
| 20260509053046 | 43 | 0 | 0.0 | 0.0 | 0.00 | 0.00 | 0.00 | 84 | 1024.0 |
| 20260509052534 | 43 | 0 | 0.0 | 0.0 | 0.00 | 0.00 | 0.00 | 83 | 1024.0 |
| 20260509052034 | 43 | 0 | 0.0 | 0.0 | 0.00 | 0.00 | 0.00 | 82 | 1023.9 |
| 20260509051544 | 43 | 0 | 0.0 | 0.0 | 0.00 | 0.00 | 0.00 | 82 | 1023.9 |
| 20260509051034 | 43 | 0 | 0.0 | 0.0 | 0.00 | 0.00 | 0.00 | 84 | 1023.9 |
| 20260509050534 | 42 | 0 | 0.0 | 0.0 | 0.00 | 0.00 | 0.00 | 85 | 1023.9 |
| 20260509050046 | 42 | 0 | 0.0 | 0.0 | 0.00 | 0.00 | 0.00 | 86 | 1023.9 |
| 20260509045534 | 41 | 0 | 0.0 | 0.0 | 0.00 | 0.00 | 0.00 | 88 | 1023.9 |
| 20260509045034 | 41 | 0 | 0.0 | 0.0 | 0.00 | 0.00 | 0.00 | 89 | 1024.0 |
| 20260509044542 | 40 | 0 | 0.0 | 0.0 | 0.00 | 0.00 | 0.00 | 89 | 1023.9 |
| 20260509044034 | 40 | 0 | 0.0 | 0.0 | 0.00 | 0.00 | 0.00 | 90 | 1024.0 |
| 20260509043534 | 40 | 0 | 0.0 | 0.0 | 0.00 | 0.00 | 0.00 | 90 | 1024.0 |
| 20260509043056 | 39 | 0 | 0.0 | 0.0 | 0.00 | 0.00 | 0.00 | 90 | 1024.0 |
| 20260509042534 | 39 | 0 | 0.0 | 0.0 | 0.00 | 0.00 | 0.00 | 90 | 1024.0 |
| 20260509042034 | 39 | 0 | 0.0 | 0.0 | 0.00 | 0.00 | 0.00 | 90 | 1024.0 |
| 20260509041546 | 38 | 0 | 0.0 | 0.0 | 0.00 | 0.00 | 0.00 | 90 | 1023.9 |
| 20260509041034 | 38 | 0 | 0.0 | 0.0 | 0.00 | 0.00 | 0.00 | 90 | 1024.0 |
| 20260509040535 | 38 | 0 | 0.0 | 0.0 | 0.00 | 0.00 | 0.00 | 90 | 1024.0 |
| 20260509040048 | 38 | 0 | 0.0 | 0.0 | 0.00 | 0.00 | 0.00 | 90 | 1024.0 |
| 20260509035536 | 38 | 0 | 0.0 | 0.0 | 0.00 | 0.00 | 0.00 | 90 | 1024.0 |
| 20260509035034 | 38 | 0 | 0.0 | 0.0 | 0.00 | 0.00 | 0.00 | 90 | 1024.1 |
| 20260509034551 | 38 | 0 | 0.0 | 0.0 | 0.00 | 0.00 | 0.00 | 90 | 1024.1 |
| 20260509034034 | 38 | 0 | 0.0 | 0.0 | 0.00 | 0.00 | 0.00 | 90 | 1024.1 |
| 20260509033534 | 38 | 0 | 0.0 | 0.0 | 0.00 | 0.00 | 0.00 | 90 | 1024.1 |
| 20260509033051 | 38 | 0 | 0.0 | 0.0 | 0.00 | 0.00 | 0.00 | 90 | 1024.1 |
| 20260509032534 | 38 | 0 | 0.0 | 0.0 | 0.00 | 0.00 | 0.00 | 90 | 1024.2 |
| 20260509032033 | 38 | 0 | 0.0 | 0.0 | 0.00 | 0.00 | 0.00 | 89 | 1024.2 |
| 20260509031542 | 38 | 0 | 0.0 | 0.0 | 0.00 | 0.00 | 0.00 | 89 | 1024.3 |
| 20260509031034 | 38 | 0 | 0.0 | 0.0 | 0.00 | 0.00 | 0.00 | 89 | 1024.2 |
| 20260509030534 | 38 | 0 | 0.0 | 0.0 | 0.00 | 0.00 | 0.00 | 89 | 1024.3 |
| 20260509030049 | 38 | 0 | 0.0 | 0.0 | 0.00 | 0.00 | 0.00 | 88 | 1024.1 |
| 20260509025533 | 38 | 0 | 0.0 | 0.0 | 0.00 | 0.00 | 0.00 | 88 | 1024.2 |
| 20260509025033 | 38 | 0 | 0.0 | 0.0 | 0.00 | 0.00 | 0.00 | 87 | 1024.2 |
| 20260509024545 | 38 | 0 | 0.0 | 0.0 | 0.00 | 0.00 | 0.00 | 87 | 1024.3 |
| 20260509024034 | 39 | 0 | 0.0 | 0.0 | 0.00 | 0.00 | 0.00 | 87 | 1024.3 |
| 20260509023534 | 39 | 0 | 0.0 | 0.0 | 0.00 | 0.00 | 0.00 | 86 | 1024.3 |
| 20260509023045 | 39 | 0 | 0.0 | 0.0 | 0.00 | 0.00 | 0.00 | 85 | 1024.4 |
| 20260509022533 | 40 | 0 | 0.0 | 0.0 | 0.00 | 0.00 | 0.00 | 84 | 1024.4 |
| 20260509022033 | 41 | 0 | 0.0 | 0.0 | 0.00 | 0.00 | 0.00 | 84 | 1024.5 |
| 20260509021545 | 41 | 0 | 0.0 | 0.0 | 0.00 | 0.00 | 0.00 | 84 | 1024.4 |
| 20260509021033 | 41 | 0 | 0.0 | 0.0 | 0.00 | 0.00 | 0.00 | 84 | 1024.5 |
| 20260509020534 | 41 | 0 | 0.0 | 0.0 | 0.00 | 0.00 | 0.00 | 84 | 1024.5 |
| 20260509020043 | 41 | 0 | 0.0 | 0.0 | 0.00 | 0.00 | 0.00 | 85 | 1024.5 |
| 20260509015535 | 40 | 0 | 0.0 | 0.0 | 0.00 | 0.00 | 0.00 | 87 | 1024.5 |
| 20260509015036 | 40 | 0 | 0.0 | 0.0 | 0.00 | 0.00 | 0.00 | 86 | 1024.5 |
| 20260509014540 | 39 | 0 | 0.0 | 0.0 | 0.00 | 0.00 | 0.00 | 86 | 1024.6 |
| 20260509014035 | 39 | 0 | 0.0 | 0.0 | 0.00 | 0.00 | 0.00 | 86 | 1024.7 |
| 20260509013534 | 39 | 0 | 0.0 | 0.0 | 0.00 | 0.00 | 0.00 | 85 | 1024.7 |
| 20260509013048 | 40 | 0 | 0.0 | 0.0 | 0.00 | 0.00 | 0.00 | 85 | 1024.6 |
| 20260509012535 | 40 | 0 | 0.0 | 0.0 | 0.00 | 0.00 | 0.00 | 85 | 1024.6 |
| 20260509012034 | 39 | 0 | 0.0 | 0.0 | 0.00 | 0.00 | 0.00 | 85 | 1024.6 |
| 20260509011546 | 39 | 0 | 0.0 | 0.0 | 0.00 | 0.00 | 0.00 | 84 | 1024.6 |
| 20260509011036 | 40 | 0 | 0.0 | 0.0 | 0.00 | 0.00 | 0.00 | 84 | 1024.6 |
| 20260509010533 | 40 | 0 | 0.0 | 0.0 | 0.00 | 0.00 | 0.00 | 82 | 1024.7 |
| 20260509010044 | 40 | 0 | 0.0 | 0.0 | 0.00 | 0.00 | 0.00 | 82 | 1024.6 |
| 20260509005536 | 41 | 0 | 0.0 | 0.0 | 0.00 | 0.00 | 0.00 | 81 | 1024.7 |
| 20260509005033 | 41 | 0 | 0.0 | 0.0 | 0.00 | 0.00 | 0.00 | 81 | 1024.6 |
| 20260509004556 | 41 | 0 | 0.0 | 0.0 | 0.00 | 0.00 | 0.00 | 81 | 1024.7 |
| 20260509004034 | 41 | 0 | 0.0 | 0.0 | 0.00 | 0.00 | 0.00 | 81 | 1024.6 |
| 20260509003534 | 41 | 0 | 0.0 | 0.0 | 0.00 | 0.00 | 0.00 | 80 | 1024.8 |
| 20260509003041 | 41 | 0 | 0.0 | 0.0 | 0.00 | 0.00 | 0.00 | 80 | 1024.7 |
| 20260509002536 | 41 | 0 | 0.0 | 0.0 | 0.00 | 0.00 | 0.00 | 80 | 1024.7 |
| 20260509002034 | 41 | 0 | 0.0 | 0.0 | 0.00 | 0.00 | 0.00 | 79 | 1024.7 |
| 20260509001551 | 41 | 0 | 0.0 | 0.0 | 0.00 | 0.00 | 0.00 | 79 | 1024.8 |
| 20260509001033 | 41 | 0 | 0.0 | 0.0 | 0.00 | 0.00 | 0.00 | 79 | 1024.7 |
| 20260509000535 | 41 | 0 | 0.0 | 0.0 | 0.00 | 0.00 | 0.00 | 79 | 1024.7 |
| 20260509000047 | 41 | 0 | 0.0 | 0.0 | 0.00 | 0.00 | 0.00 | 79 | 1024.7 |
| 20260508235534 | 41 | 0 | 0.0 | 0.0 | 0.00 | 0.00 | 0.00 | 79 | 1024.7 |
| 20260508235037 | 41 | 0 | 0.0 | 0.0 | 0.00 | 0.00 | 0.00 | 79 | 1024.7 |
| 20260508234544 | 41 | 0 | 0.0 | 0.0 | 0.00 | 0.00 | 0.00 | 79 | 1024.7 |
| 20260508234033 | 41 | 0 | 0.0 | 0.0 | 0.00 | 0.00 | 0.00 | 78 | 1024.7 |
| 20260508233533 | 41 | 0 | 0.0 | 0.0 | 0.00 | 0.00 | 0.00 | 79 | 1024.7 |
| 20260508233044 | 41 | 0 | 0.0 | 0.0 | 0.00 | 0.00 | 0.00 | 78 | 1024.7 |
| 20260508232534 | 41 | 0 | 0.0 | 0.9 | 0.00 | 0.00 | 0.00 | 79 | 1024.7 |
| 20260508232034 | 41 | 0 | 0.0 | 0.9 | 0.00 | 0.00 | 0.00 | 79 | 1024.8 |
| 20260508231545 | 40 | 0 | 0.0 | 0.0 | 0.00 | 0.00 | 0.00 | 79 | 1024.6 |
| 20260508231034 | 40 | 0 | 0.0 | 0.0 | 0.00 | 0.00 | 0.00 | 78 | 1024.7 |
| 20260508230533 | 41 | 0 | 0.0 | 0.0 | 0.00 | 0.00 | 0.00 | 77 | 1024.7 |
| 20260508230045 | 41 | 0 | 0.0 | 0.0 | 0.00 | 0.00 | 0.00 | 76 | 1024.6 |
| 20260508225534 | 41 | 0 | 0.0 | 0.0 | 0.00 | 0.00 | 0.00 | 76 | 1024.7 |
| 20260508225034 | 42 | 0 | 0.0 | 0.0 | 0.00 | 0.00 | 0.00 | 75 | 1024.7 |
| 20260508224550 | 42 | 0 | 0.0 | 0.0 | 0.00 | 0.00 | 0.00 | 76 | 1024.6 |
| 20260508224034 | 41 | 0 | 0.0 | 0.0 | 0.00 | 0.00 | 0.00 | 76 | 1024.6 |
| 20260508223534 | 41 | 0 | 0.0 | 0.0 | 0.00 | 0.00 | 0.00 | 76 | 1024.6 |
| 20260508223050 | 41 | 0 | 0.0 | 0.0 | 0.00 | 0.00 | 0.00 | 75 | 1024.6 |
| 20260508222534 | 42 | 0 | 0.0 | 0.0 | 0.00 | 0.00 | 0.00 | 75 | 1024.7 |
| 20260508222033 | 42 | 0 | 0.0 | 0.9 | 0.00 | 0.00 | 0.00 | 74 | 1024.5 |
| 20260508221544 | 42 | 0 | 0.0 | 1.7 | 0.00 | 0.00 | 0.00 | 75 | 1024.6 |
| 20260508221034 | 42 | 118 | 0.9 | 1.7 | 0.00 | 0.00 | 0.00 | 75 | 1024.6 |
| 20260508220534 | 42 | 101 | 0.9 | 1.7 | 0.00 | 0.00 | 0.00 | 75 | 1024.6 |
| 20260508220040 | 43 | 152 | 0.0 | 1.7 | 0.00 | 0.00 | 0.00 | 71 | 1024.6 |
| 20260508215534 | 45 | 106 | 0.0 | 0.9 | 0.00 | 0.00 | 0.00 | 66 | 1024.6 |
| 20260508215034 | 46 | 86 | 0.9 | 2.6 | 0.00 | 0.00 | 0.00 | 63 | 1024.6 |
| 20260508214555 | 46 | 0 | 0.0 | 2.6 | 0.00 | 0.00 | 0.00 | 63 | 1024.5 |
| 20260508214036 | 46 | 0 | 0.0 | 1.7 | 0.00 | 0.00 | 0.00 | 63 | 1024.5 |
| 20260508213533 | 46 | 0 | 0.0 | 1.7 | 0.00 | 0.00 | 0.00 | 62 | 1024.5 |
| 20260508213045 | 46 | 91 | 0.0 | 1.7 | 0.00 | 0.00 | 0.00 | 63 | 1024.5 |
| 20260508212534 | 46 | 89 | 0.0 | 0.9 | 0.00 | 0.00 | 0.00 | 62 | 1024.6 |
| 20260508212035 | 47 | 0 | 0.0 | 0.9 | 0.00 | 0.00 | 0.00 | 61 | 1024.5 |
| 20260508211541 | 47 | 322 | 0.0 | 0.9 | 0.00 | 0.00 | 0.00 | 62 | 1024.4 |
| 20260508211034 | 47 | 0 | 0.0 | 0.0 | 0.00 | 0.00 | 0.00 | 61 | 1024.5 |
| 20260508210534 | 47 | 0 | 0.0 | 1.7 | 0.00 | 0.00 | 0.00 | 61 | 1024.6 |
| 20260508210054 | 47 | 0 | 0.0 | 1.7 | 0.00 | 0.00 | 0.00 | 60 | 1024.5 |
| 20260508205533 | 47 | 0 | 0.0 | 0.9 | 0.00 | 0.00 | 0.00 | 60 | 1024.5 |
| 20260508205034 | 47 | 122 | 0.0 | 0.9 | 0.00 | 0.00 | 0.00 | 61 | 1024.4 |
| 20260508204544 | 47 | 0 | 0.0 | 0.9 | 0.00 | 0.00 | 0.00 | 61 | 1024.5 |
| 20260508204033 | 47 | 0 | 0.0 | 0.0 | 0.00 | 0.00 | 0.00 | 60 | 1024.5 |
| 20260508203533 | 48 | 0 | 0.0 | 0.0 | 0.00 | 0.00 | 0.00 | 60 | 1024.5 |
| 20260508203045 | 48 | 0 | 0.0 | 0.0 | 0.00 | 0.00 | 0.00 | 60 | 1024.4 |
| 20260508202535 | 47 | 0 | 0.0 | 0.0 | 0.00 | 0.00 | 0.00 | 60 | 1024.5 |
| 20260508202034 | 48 | 0 | 0.0 | 0.0 | 0.00 | 0.00 | 0.00 | 60 | 1024.4 |
| 20260508201541 | 48 | 0 | 0.0 | 0.9 | 0.00 | 0.00 | 0.00 | 61 | 1024.3 |
| 20260508201033 | 48 | 0 | 0.0 | 0.9 | 0.00 | 0.00 | 0.00 | 59 | 1024.4 |
| 20260508200534 | 49 | 0 | 0.0 | 0.9 | 0.00 | 0.00 | 0.00 | 59 | 1024.3 |
| 20260508200043 | 49 | 0 | 0.0 | 0.9 | 0.00 | 0.00 | 0.00 | 59 | 1024.4 |
| 20260508195533 | 49 | 0 | 0.0 | 0.9 | 0.00 | 0.00 | 0.00 | 59 | 1024.2 |
| 20260508195033 | 50 | 0 | 0.0 | 0.9 | 0.00 | 0.00 | 0.00 | 57 | 1024.2 |
| 20260508194546 | 50 | 108 | 0.0 | 0.9 | 0.00 | 0.00 | 0.00 | 57 | 1024.3 |
| 20260508194035 | 51 | 0 | 0.0 | 3.5 | 0.00 | 0.00 | 0.00 | 56 | 1024.1 |
| 20260508193533 | 51 | 126 | 0.9 | 3.5 | 0.00 | 0.00 | 0.00 | 55 | 1024.1 |
| 20260508193058 | 51 | 115 | 1.7 | 3.5 | 0.00 | 0.00 | 0.00 | 56 | 1024.1 |
| 20260508192533 | 52 | 114 | 0.9 | 2.6 | 0.00 | 0.00 | 0.00 | 54 | 1024.2 |
| 20260508192038 | 52 | 135 | 0.9 | 1.7 | 0.00 | 0.00 | 0.00 | 54 | 1024.1 |
| 20260508191550 | 52 | 156 | 0.0 | 1.7 | 0.00 | 0.00 | 0.00 | 52 | 1024.1 |
| 20260508191034 | 52 | 205 | 0.0 | 3.5 | 0.00 | 0.00 | 0.00 | 52 | 1024.1 |
| 20260508190533 | 52 | 218 | 1.7 | 4.3 | 0.00 | 0.00 | 0.00 | 52 | 1024.0 |
| 20260508190055 | 52 | 240 | 1.7 | 6.1 | 0.00 | 0.00 | 0.00 | 52 | 1023.8 |
| 20260508185539 | 53 | 230 | 3.5 | 6.1 | 0.00 | 0.00 | 0.00 | 51 | 1023.7 |
| 20260508185034 | 53 | 238 | 3.5 | 8.7 | 0.00 | 0.00 | 0.00 | 49 | 1023.9 |
| 20260508184539 | 54 | 224 | 5.2 | 8.7 | 0.00 | 0.00 | 0.00 | 48 | 1023.9 |
| 20260508184034 | 54 | 230 | 3.5 | 7.0 | 0.00 | 0.00 | 0.00 | 48 | 1023.8 |
| 20260508183533 | 54 | 214 | 3.5 | 6.1 | 0.00 | 0.00 | 0.00 | 49 | 1023.8 |
| 20260508183047 | 54 | 231 | 3.5 | 7.0 | 0.00 | 0.00 | 0.00 | 48 | 1023.8 |
| 20260508182534 | 55 | 232 | 4.3 | 10.4 | 0.00 | 0.00 | 0.00 | 47 | 1023.8 |
| 20260508182034 | 55 | 221 | 5.2 | 10.4 | 0.00 | 0.00 | 0.00 | 47 | 1023.9 |
| 20260508181544 | 55 | 253 | 5.2 | 10.4 | 0.00 | 0.00 | 0.00 | 46 | 1023.8 |
| 20260508181037 | 56 | 153 | 3.5 | 6.1 | 0.00 | 0.00 | 0.00 | 47 | 1023.8 |
| 20260508180533 | 56 | 231 | 4.3 | 9.6 | 0.00 | 0.00 | 0.00 | 46 | 1023.7 |
| 20260508180057 | 56 | 203 | 6.1 | 9.6 | 0.00 | 0.00 | 0.00 | 45 | 1023.6 |
| 20260508175533 | 56 | 208 | 4.3 | 10.4 | 0.00 | 0.00 | 0.00 | 45 | 1023.7 |
| 20260508175033 | 56 | 216 | 6.1 | 10.4 | 0.00 | 0.00 | 0.00 | 45 | 1023.7 |
| 20260508174559 | 56 | 226 | 7.0 | 13.0 | 0.00 | 0.00 | 0.00 | 46 | 1023.6 |
| 20260508174033 | 57 | 192 | 9.6 | 13.0 | 0.00 | 0.00 | 0.00 | 45 | 1023.6 |
| 20260508173533 | 57 | 191 | 6.1 | 11.3 | 0.00 | 0.00 | 0.00 | 45 | 1023.5 |
| 20260508173038 | 57 | 229 | 7.0 | 11.3 | 0.00 | 0.00 | 0.00 | 47 | 1023.6 |
| 20260508172534 | 57 | 207 | 6.1 | 11.3 | 0.00 | 0.00 | 0.00 | 46 | 1023.5 |
| 20260508172034 | 57 | 221 | 5.2 | 12.2 | 0.00 | 0.00 | 0.00 | 45 | 1023.4 |
| 20260508171545 | 57 | 221 | 8.7 | 12.2 | 0.00 | 0.00 | 0.00 | 45 | 1023.4 |
| 20260508171034 | 58 | 221 | 9.6 | 12.2 | 0.00 | 0.00 | 0.00 | 45 | 1023.4 |
| 20260508170534 | 58 | 223 | 7.0 | 12.2 | 0.00 | 0.00 | 0.00 | 45 | 1023.5 |
| 20260508170047 | 58 | 224 | 7.8 | 12.2 | 0.00 | 0.00 | 0.00 | 43 | 1023.3 |
| 20260508165533 | 58 | 244 | 9.6 | 13.9 | 0.00 | 0.00 | 0.00 | 44 | 1023.4 |
| 20260508165033 | 58 | 181 | 8.7 | 14.8 | 0.00 | 0.00 | 0.00 | 44 | 1023.4 |
| 20260508164550 | 58 | 212 | 8.7 | 14.8 | 0.00 | 0.00 | 0.00 | 44 | 1023.5 |
| 20260508164033 | 57 | 222 | 5.2 | 13.0 | 0.00 | 0.00 | 0.00 | 45 | 1023.4 |
| 20260508163537 | 58 | 91 | 4.3 | 9.6 | 0.00 | 0.00 | 0.00 | 45 | 1023.4 |
| 20260508163044 | 58 | 211 | 4.3 | 11.3 | 0.00 | 0.00 | 0.00 | 44 | 1023.3 |
| 20260508162533 | 59 | 241 | 8.7 | 13.9 | 0.00 | 0.00 | 0.00 | 43 | 1023.4 |
| 20260508162033 | 58 | 202 | 8.7 | 13.9 | 0.00 | 0.00 | 0.00 | 41 | 1023.2 |
| 20260508161540 | 59 | 224 | 7.0 | 14.8 | 0.00 | 0.00 | 0.00 | 43 | 1023.4 |
| 20260508161033 | 58 | 229 | 9.6 | 14.8 | 0.00 | 0.00 | 0.00 | 42 | 1023.4 |
| 20260508160533 | 58 | 214 | 6.1 | 11.3 | 0.00 | 0.00 | 0.00 | 44 | 1023.5 |
| 20260508160040 | 58 | 231 | 7.0 | 11.3 | 0.00 | 0.00 | 0.00 | 44 | 1023.5 |
| 20260508155534 | 58 | 61 | 5.2 | 11.3 | 0.00 | 0.00 | 0.00 | 43 | 1023.4 |
| 20260508155034 | 59 | 224 | 6.1 | 11.3 | 0.00 | 0.00 | 0.00 | 45 | 1023.4 |
| 20260508154538 | 58 | 215 | 7.8 | 11.3 | 0.00 | 0.00 | 0.00 | 44 | 1023.4 |
| 20260508154033 | 58 | 229 | 7.0 | 11.3 | 0.00 | 0.00 | 0.00 | 44 | 1023.5 |
| 20260508153534 | 58 | 205 | 6.1 | 10.4 | 0.00 | 0.00 | 0.00 | 45 | 1023.4 |
| 20260508153054 | 58 | 185 | 5.2 | 10.4 | 0.00 | 0.00 | 0.00 | 44 | 1023.4 |
| 20260508152534 | 58 | 207 | 6.1 | 14.8 | 0.00 | 0.00 | 0.00 | 44 | 1023.5 |
| 20260508152033 | 59 | 113 | 8.7 | 14.8 | 0.00 | 0.00 | 0.00 | 43 | 1023.5 |
| 20260508151545 | 59 | 226 | 9.6 | 13.9 | 0.00 | 0.00 | 0.00 | 43 | 1023.5 |
| 20260508151034 | 59 | 218 | 8.7 | 13.9 | 0.00 | 0.00 | 0.00 | 42 | 1023.6 |
| 20260508150533 | 59 | 244 | 9.6 | 13.0 | 0.00 | 0.00 | 0.00 | 42 | 1023.5 |
| 20260508150045 | 59 | 238 | 7.8 | 14.8 | 0.00 | 0.00 | 0.00 | 43 | 1023.5 |
| 20260508145533 | 59 | 204 | 7.0 | 16.5 | 0.00 | 0.00 | 0.00 | 43 | 1023.5 |
| 20260508145033 | 59 | 236 | 10.4 | 18.2 | 0.00 | 0.00 | 0.00 | 42 | 1023.5 |
| 20260508144550 | 59 | 227 | 12.2 | 18.2 | 0.00 | 0.00 | 0.00 | 41 | 1023.6 |
| 20260508144033 | 59 | 207 | 7.8 | 17.4 | 0.00 | 0.00 | 0.00 | 43 | 1023.6 |
| 20260508143534 | 59 | 169 | 10.4 | 17.4 | 0.00 | 0.00 | 0.00 | 41 | 1023.6 |
| 20260508143043 | 59 | 229 | 8.7 | 15.6 | 0.00 | 0.00 | 0.00 | 41 | 1023.5 |
| 20260508142534 | 60 | 211 | 9.6 | 13.9 | 0.00 | 0.00 | 0.00 | 41 | 1023.7 |
| 20260508142033 | 60 | 225 | 8.7 | 16.5 | 0.00 | 0.00 | 0.00 | 42 | 1023.6 |
| 20260508141600 | 59 | 176 | 10.4 | 17.4 | 0.00 | 0.00 | 0.00 | 39 | 1023.6 |
| 20260508141034 | 59 | 176 | 8.7 | 17.4 | 0.00 | 0.00 | 0.00 | 40 | 1023.7 |
| 20260508140533 | 60 | 225 | 13.0 | 17.4 | 0.00 | 0.00 | 0.00 | 40 | 1023.7 |
| 20260508140039 | 60 | 220 | 10.4 | 14.8 | 0.00 | 0.00 | 0.00 | 41 | 1023.6 |
| 20260508135534 | 60 | 231 | 10.4 | 15.6 | 0.00 | 0.00 | 0.00 | 41 | 1023.7 |
| 20260508135034 | 60 | 214 | 10.4 | 17.4 | 0.00 | 0.00 | 0.00 | 43 | 1023.7 |
| 20260508134545 | 60 | 219 | 10.4 | 17.4 | 0.00 | 0.00 | 0.00 | 41 | 1023.8 |
| 20260508134034 | 60 | 241 | 10.4 | 16.5 | 0.00 | 0.00 | 0.00 | 43 | 1023.8 |
| 20260508133534 | 59 | 231 | 11.3 | 16.5 | 0.00 | 0.00 | 0.00 | 40 | 1023.9 |
| 20260508133045 | 60 | 250 | 12.2 | 16.5 | 0.00 | 0.00 | 0.00 | 41 | 1023.9 |
| 20260508132535 | 60 | 166 | 8.7 | 16.5 | 0.00 | 0.00 | 0.00 | 41 | 1023.8 |
| 20260508132034 | 59 | 197 | 9.6 | 18.2 | 0.00 | 0.00 | 0.00 | 42 | 1023.8 |
| 20260508131556 | 59 | 221 | 8.7 | 18.2 | 0.00 | 0.00 | 0.00 | 41 | 1024.0 |
| 20260508131034 | 59 | 197 | 7.8 | 15.6 | 0.00 | 0.00 | 0.00 | 42 | 1024.0 |
| 20260508130535 | 59 | 212 | 7.8 | 15.6 | 0.00 | 0.00 | 0.00 | 41 | 1024.0 |
| 20260508130042 | 59 | 229 | 8.7 | 16.5 | 0.00 | 0.00 | 0.00 | 42 | 1023.9 |
| 20260508125533 | 59 | 143 | 7.8 | 16.5 | 0.00 | 0.00 | 0.00 | 42 | 1023.9 |
| 20260508125034 | 59 | 207 | 9.6 | 16.5 | 0.00 | 0.00 | 0.00 | 40 | 1024.0 |
| 20260508124539 | 59 | 229 | 11.3 | 18.2 | 0.00 | 0.00 | 0.00 | 41 | 1023.9 |
| 20260508124033 | 59 | 238 | 10.4 | 18.2 | 0.00 | 0.00 | 0.00 | 41 | 1023.9 |
| 20260508123534 | 59 | 212 | 11.3 | 18.2 | 0.00 | 0.00 | 0.00 | 42 | 1024.0 |
| 20260508123056 | 59 | 214 | 10.4 | 16.5 | 0.00 | 0.00 | 0.00 | 42 | 1023.8 |
| 20260508122534 | 60 | 220 | 8.7 | 14.8 | 0.00 | 0.00 | 0.00 | 40 | 1024.1 |
| 20260508122033 | 60 | 217 | 6.1 | 13.0 | 0.00 | 0.00 | 0.00 | 41 | 1023.8 |
| 20260508121548 | 59 | 222 | 5.2 | 14.8 | 0.00 | 0.00 | 0.00 | 42 | 1023.8 |
| 20260508121034 | 59 | 209 | 8.7 | 14.8 | 0.00 | 0.00 | 0.00 | 42 | 1023.9 |
| 20260508120533 | 59 | 226 | 7.8 | 14.8 | 0.00 | 0.00 | 0.00 | 42 | 1023.7 |
| 20260508120104 | 59 | 202 | 7.0 | 14.8 | 0.00 | 0.00 | 0.00 | 42 | 1023.7 |
| 20260508115534 | 60 | 219 | 8.7 | 14.8 | 0.00 | 0.00 | 0.00 | 43 | 1023.8 |
| 20260508115033 | 60 | 246 | 8.7 | 14.8 | 0.00 | 0.00 | 0.00 | 42 | 1023.8 |
| 20260508114555 | 59 | 224 | 7.8 | 13.9 | 0.00 | 0.00 | 0.00 | 42 | 1023.8 |
| 20260508114037 | 60 | 228 | 8.7 | 13.9 | 0.00 | 0.00 | 0.00 | 43 | 1023.7 |
| 20260508113558 | 60 | 202 | 5.2 | 13.0 | 0.00 | 0.00 | 0.00 | 45 | 1023.7 |
| 20260508113100 | 60 | 184 | 6.1 | 13.0 | 0.00 | 0.00 | 0.00 | 42 | 1023.7 |
| 20260508112534 | 60 | 193 | 7.8 | 13.0 | 0.00 | 0.00 | 0.00 | 42 | 1023.7 |
| 20260508112033 | 60 | 233 | 7.0 | 13.0 | 0.00 | 0.00 | 0.00 | 44 | 1023.8 |
| 20260508111541 | 59 | 231 | 7.0 | 13.0 | 0.00 | 0.00 | 0.00 | 44 | 1023.8 |
| 20260508111033 | 59 | 80 | 5.2 | 11.3 | 0.00 | 0.00 | 0.00 | 47 | 1023.6 |
| 20260508110534 | 58 | 115 | 5.2 | 15.6 | 0.00 | 0.00 | 0.00 | 44 | 1023.4 |
| 20260508110038 | 58 | 220 | 7.0 | 15.6 | 0.00 | 0.00 | 0.00 | 47 | 1023.7 |
| 20260508105534 | 58 | 240 | 7.8 | 14.8 | 0.00 | 0.00 | 0.00 | 48 | 1023.7 |
| 20260508105034 | 58 | 207 | 7.8 | 12.2 | 0.00 | 0.00 | 0.00 | 46 | 1023.7 |
| 20260508104547 | 58 | 219 | 7.8 | 12.2 | 0.00 | 0.00 | 0.00 | 48 | 1023.5 |
| 20260508104033 | 57 | 248 | 7.8 | 12.2 | 0.00 | 0.00 | 0.00 | 48 | 1023.6 |
| 20260508103533 | 58 | 221 | 7.8 | 11.3 | 0.00 | 0.00 | 0.00 | 49 | 1023.4 |
| 20260508103053 | 57 | 223 | 7.0 | 11.3 | 0.00 | 0.00 | 0.00 | 49 | 1023.6 |
| 20260508102533 | 56 | 210 | 7.0 | 12.2 | 0.00 | 0.00 | 0.00 | 51 | 1023.7 |
| 20260508102033 | 56 | 188 | 5.2 | 12.2 | 0.00 | 0.00 | 0.00 | 51 | 1023.5 |